Temp_Advection
nan nan nan nan nan nan nan nan nan nan nan nan nan nan nan nan nan nan nan nan nan nan nan nan nan nan nan nan nan nan nan nan
nan 0 0 0 0 0 -0 0 0 -0 -0 -0 -0 0 -0 0 0 -0 -0 -0 -0 -0 -0 -0 -0 -0 -0 -0 -0 -0 -1 nan
nan -0 0 -0 -0 0 0 -0 -0 -0 -0 -0 0 0 -0 -0 -0 -0 -0 -0 -0 -0 -0 0 0 -0 -0 -0 -0 -0 -1 nan
nan 0 0 0 -0 -0 -0 -0 -0 -0 0 -0 -0 -0 -0 -0 -0 -0 -0 0 0 0 0 0 -0 -1 -0 -1 -1 -0 -0 nan
nan -0 -0 -0 -0 -0 -0 -0 -0 -0 -0 -0 -0 -0 -0 -0 -0 0 0 0 0 0 -0 -1 -0 -0 -0 0 -0 -1 -1 nan
nan -0 -0 0 -0 -0 -0 -0 -0 -0 -0 -0 -0 -0 -0 -0 -0 0 0 -0 -1 -1 -0 0 -0 -1 -1 -0 -0 -0 -0 nan
nan 0 -0 0 -0 -0 -0 -0 -0 -0 -0 -0 -0 -0 -0 -1 -1 -1 -0 -0 -0 -1 -1 -0 0 0 -1 -1 -1 -1 -0 nan
nan 0 0 0 0 0 0 0 0 -0 -0 -0 -0 -0 -0 -0 -0 -0 -0 -0 -0 -0 -0 1 1 0 0 -0 -1 -1 -0 nan
nan 0 0 0 0 0 0 0 -0 -0 -0 -0 -0 -0 0 0 0 0 0 0 0 -0 -0 0 0 1 1 -0 -0 -0 0 nan
nan 0 0 0 0 0 0 0 0 -0 -0 -0 -0 -0 -0 -0 -0 -0 0 0 0 0 0 1 0 0 0 0 -0 -0 0 nan
nan 0 0 0 0 0 0 -0 -0 -0 -0 -0 -0 -0 -0 -0 -1 -1 -0 -0 0 1 0 1 1 -0 0 0 0 0 0 nan
nan 0 0 0 0 -0 0 0 -0 -0 -0 -0 -0 -1 -1 -1 -1 -1 -1 -1 -0 0 0 0 0 -0 0 0 0 0 0 nan
nan 0 0 0 0 0 -0 -0 -0 -0 -0 -0 -0 -0 -1 -1 -1 -1 -1 -0 -0 -0 -0 0 0 0 0 0 0 0 0 nan
nan 0 0 0 0 0 -0 -0 -0 -0 -0 -0 -0 -0 -0 -1 -1 -1 -0 -0 -0 -0 -0 -0 0 0 0 0 0 0 0 nan
nan 0 0 0 0 0 -0 -0 -0 -0 -0 -0 -0 -0 -0 -0 -0 -0 0 0 -0 -0 -0 -0 0 0 0 0 0 0 0 nan
nan 0 0 0 0 0 0 0 0 -0 -0 0 -0 -0 -0 -0 -0 -0 0 0 0 -0 -0 -0 0 -0 0 0 0 0 0 nan
nan 0 0 0 0 0 0 0 0 0 0 0 -0 -0 -0 -0 -0 -0 0 0 -0 -0 -0 -0 -0 0 0 0 0 0 0 nan
nan 0 0 0 0 0 0 0 0 -0 0 0 0 -0 -0 -0 0 -0 0 0 0 -0 0 -0 -0 0 -0 0 0 0 0 nan
nan nan nan nan nan nan nan nan nan nan nan nan nan nan nan nan nan nan nan nan nan nan nan nan nan nan nan nan nan nan nan nan
Wind_Speed
9 12 12 12 19 20 17 15 12 9 7 8 10 7 3 4 9 7 10 13 16 20 22 21 24 26 25 22 22 22 24 25
8 7 6 7 8 12 12 11 6 3 4 13 6 4 9 10 9 14 16 18 21 19 22 23 25 21 21 20 20 21 24 27
18 16 13 11 12 12 14 11 11 7 7 1 5 8 8 9 13 15 17 18 18 19 20 20 17 17 20 22 24 23 26 28
20 19 17 17 17 16 16 14 12 10 9 7 9 9 9 12 15 16 18 19 17 18 17 15 20 29 31 31 28 27 27 25
22 19 19 17 17 14 11 10 7 4 5 7 10 11 11 13 15 17 17 16 16 17 20 29 35 35 30 22 25 27 27 26
22 18 15 15 14 11 8 6 4 5 8 9 13 14 13 14 15 16 15 19 25 28 29 30 27 23 24 23 25 26 25 21
20 16 12 9 9 7 4 1 4 7 9 10 11 11 11 12 14 16 21 23 23 28 26 25 24 19 18 20 23 23 21 19
19 16 12 9 7 3 2 1 3 3 6 8 7 9 12 14 15 18 22 23 24 24 23 22 14 12 11 14 19 22 19 17
15 14 12 9 8 7 3 1 5 8 7 7 9 12 16 19 21 24 27 27 26 24 22 20 22 23 27 14 14 18 16 17
17 15 13 11 8 4 2 7 9 7 9 11 15 20 23 25 28 31 32 31 26 21 16 17 21 22 8 12 16 15 15 15
19 16 13 9 4 3 8 9 9 9 12 17 22 26 28 30 33 33 31 27 19 16 13 21 19 22 15 11 12 14 16 17
19 14 10 5 1 4 11 7 6 11 17 21 24 26 30 30 32 32 29 19 15 18 22 25 16 15 9 11 14 16 19 20
15 10 6 4 2 3 4 4 10 15 20 22 23 26 29 31 32 29 24 16 15 16 18 23 19 9 9 13 17 18 22 23
12 9 8 6 2 1 5 9 13 16 20 21 23 27 30 31 31 28 22 13 13 20 21 14 6 8 13 15 19 22 24 25
11 11 11 6 2 13 8 11 14 17 19 20 22 26 30 32 30 26 21 17 18 13 11 9 9 13 15 19 23 24 24 25
12 11 9 6 12 7 10 13 15 17 19 20 22 27 31 30 28 26 20 16 13 12 10 10 13 17 17 21 23 24 26 31
13 12 9 11 10 10 13 14 16 19 21 22 22 28 28 28 29 23 14 10 12 12 11 13 18 19 19 20 24 27 30 33
15 14 9 10 13 12 13 16 18 21 23 20 24 27 26 29 24 18 13 11 13 15 16 19 20 15 20 24 25 29 30 28
15 13 12 14 13 13 15 18 21 23 21 22 25 23 27 28 22 16 15 14 17 17 17 14 12 20 23 24 28 27 26 26
Wind_Direction
195 216 230 218 224 227 211 197 222 223 248 212 174 161 141 341 312 295 301 309 313 310 311 316 324 323 315 307 304 304 304 305
131 152 178 184 182 201 216 243 283 114 119 146 135 349 325 293 309 321 321 322 321 311 312 312 314 305 301 301 302 303 304 308
108 110 109 110 99 84 81 77 80 95 143 182 331 342 354 328 315 306 306 312 308 304 302 299 302 312 318 316 316 322 327 327
114 107 94 87 85 82 90 100 101 89 75 43 11 1 335 305 297 299 300 295 291 292 290 297 316 324 322 321 319 321 324 327
116 108 107 107 106 100 93 90 77 37 359 342 334 322 302 295 294 293 291 291 293 299 315 318 314 312 313 311 322 327 326 323
118 118 120 119 114 113 109 91 39 6 345 332 331 327 312 307 306 298 302 319 321 320 320 312 317 315 308 306 315 321 321 320
131 134 132 138 128 118 102 57 348 339 331 323 323 326 336 346 339 326 317 317 320 324 322 314 307 299 319 329 325 322 322 325
156 155 149 153 140 158 198 224 278 318 319 327 351 350 348 338 327 316 312 320 317 317 304 290 282 288 308 320 329 331 329 337
173 166 159 168 160 151 153 280 315 319 329 342 336 330 328 328 324 319 315 313 314 312 304 281 291 293 298 331 321 318 323 333
167 159 159 155 153 153 294 314 322 337 347 340 340 341 335 331 326 322 317 314 313 303 273 261 286 296 299 307 313 319 315 322
164 159 157 156 168 325 328 326 328 337 338 333 335 336 333 332 330 327 326 322 303 270 248 278 288 304 309 314 307 316 311 312
164 161 160 169 225 316 313 309 327 333 335 338 340 341 342 339 335 334 336 332 294 275 299 316 312 310 316 313 314 312 315 315
161 163 181 204 291 288 324 330 329 333 339 342 344 343 344 342 340 339 341 337 313 304 299 309 304 285 315 316 322 317 320 317
171 190 203 196 213 289 315 318 326 332 339 343 345 342 342 341 341 339 334 319 298 303 299 293 273 304 311 317 322 321 319 317
196 197 195 203 244 299 293 314 321 330 338 339 337 338 341 340 338 335 322 297 292 297 282 273 286 306 303 312 322 317 311 306
209 206 211 272 289 264 298 310 320 327 330 329 330 336 337 336 336 331 319 307 298 298 289 273 294 312 295 312 310 306 307 308
217 216 236 267 244 282 298 310 317 320 323 325 325 329 332 334 331 327 318 324 319 291 279 298 301 298 305 309 309 310 311 308
223 225 252 260 261 287 300 306 311 315 315 312 320 325 330 332 325 323 311 296 326 282 280 300 294 293 311 311 311 312 313 313
223 236 259 259 269 286 291 299 307 305 301 311 318 322 329 330 320 312 302 290 303 305 306 292 298 313 309 313 314 318 320 321
Height
1547 1549 1550 1552 1553 1556 1558 1561 1564 1566 1567 1570 1573 1571 1572 1572 1572 1569 1567 1565 1564 1563 1561 1558 1556 1553 1551 1549 1547 1544 1540 1537
1545 1548 1549 1551 1553 1556 1560 1562 1564 1565 1567 1572 1572 1572 1572 1570 1569 1567 1564 1562 1561 1559 1557 1554 1551 1549 1546 1544 1542 1539 1537 1532
1549 1549 1551 1553 1557 1559 1561 1563 1565 1567 1569 1570 1571 1570 1569 1568 1565 1563 1561 1559 1557 1555 1552 1549 1547 1545 1543 1539 1536 1534 1531 1528
1550 1551 1554 1555 1558 1560 1562 1565 1567 1568 1568 1568 1567 1567 1567 1565 1563 1560 1558 1555 1553 1551 1548 1545 1543 1541 1537 1534 1531 1528 1526 1526
1549 1554 1557 1559 1559 1563 1565 1565 1565 1566 1567 1566 1565 1564 1563 1561 1559 1556 1553 1551 1549 1547 1545 1543 1540 1536 1533 1529 1526 1524 1522 1520
1551 1556 1559 1561 1560 1561 1564 1564 1565 1564 1564 1563 1561 1560 1559 1557 1555 1553 1551 1549 1547 1544 1541 1538 1535 1531 1528 1525 1522 1520 1519 1517
1552 1556 1560 1563 1562 1562 1563 1562 1562 1561 1560 1559 1558 1557 1556 1555 1553 1551 1548 1546 1543 1539 1535 1533 1530 1528 1526 1523 1521 1517 1515 1512
1553 1555 1554 1560 1560 1561 1561 1560 1560 1558 1557 1556 1555 1554 1553 1552 1550 1546 1543 1539 1537 1534 1531 1528 1525 1523 1520 1519 1517 1517 1514 1508
1552 1554 1553 1556 1557 1558 1559 1558 1557 1557 1556 1554 1553 1552 1551 1548 1545 1541 1537 1534 1530 1527 1524 1521 1519 1518 1516 1514 1513 1512 1511 1508
1552 1552 1552 1553 1555 1555 1557 1557 1557 1556 1556 1554 1551 1549 1547 1543 1540 1536 1531 1526 1522 1520 1518 1517 1516 1513 1512 1511 1512 1509 1507 1504
1549 1550 1550 1551 1552 1555 1556 1555 1555 1554 1553 1551 1548 1546 1544 1539 1534 1529 1524 1520 1517 1516 1515 1514 1511 1509 1508 1508 1507 1505 1503 1501
1547 1548 1549 1550 1552 1553 1554 1555 1554 1553 1551 1549 1546 1543 1539 1535 1530 1524 1519 1516 1514 1512 1511 1510 1508 1507 1506 1505 1504 1502 1499 1496
1546 1548 1550 1551 1552 1553 1553 1553 1552 1550 1548 1546 1543 1539 1535 1530 1525 1519 1514 1511 1511 1511 1508 1506 1505 1504 1502 1502 1500 1497 1494 1491
1546 1548 1549 1550 1550 1552 1553 1551 1550 1548 1545 1542 1538 1534 1530 1525 1520 1516 1512 1509 1508 1506 1504 1502 1501 1501 1499 1498 1495 1492 1489 1486
1544 1546 1547 1548 1549 1549 1549 1549 1547 1544 1541 1537 1534 1530 1525 1520 1515 1511 1508 1506 1503 1501 1499 1498 1498 1497 1495 1493 1490 1487 1484 1481
1543 1543 1545 1546 1545 1545 1545 1545 1543 1540 1536 1533 1529 1525 1521 1516 1512 1508 1503 1501 1500 1498 1496 1495 1495 1493 1492 1489 1486 1483 1479 1475
1539 1541 1541 1542 1542 1543 1542 1541 1539 1536 1532 1529 1525 1521 1517 1512 1508 1504 1501 1499 1497 1495 1493 1492 1491 1489 1487 1485 1481 1478 1474 1468
1535 1537 1538 1539 1540 1540 1538 1537 1534 1531 1528 1525 1521 1517 1513 1508 1503 1500 1498 1496 1495 1492 1490 1489 1487 1485 1483 1480 1477 1473 1467 1462
1532 1534 1535 1536 1537 1536 1534 1532 1530 1526 1524 1520 1517 1513 1509 1504 1500 1496 1495 1493 1491 1489 1487 1485 1484 1481 1479 1476 1472 1467 1462 1456